DW7361 Weather Reports


time (UTC)temp
C
wind
direction
speed
KPH
gust
KPH
rain 1hr
cm
rain 24hr
cm
rain mn
cm
humidity
%
barometer
mb
20260504081509 2 84 0.0 0.0 0.00 0.00 0.00 33 1014.0
20260504044546 5 82 0.0 0.0 0.00 0.00 0.00 62 1013.9
20260504043040 5 84 0.0 0.0 0.00 0.00 0.00 66 1013.8
20260504041536 5 83 0.0 0.0 0.00 0.00 0.00 66 1013.6
20260504040043 5 84 0.0 0.0 0.00 0.00 0.00 67 1013.5
20260504034534 5 83 0.0 0.0 0.00 0.00 0.00 67 1013.3
20260504033033 6 84 0.0 0.0 0.00 0.00 0.00 68 1013.2
20260504031533 6 82 0.0 0.0 0.00 0.00 0.00 69 1013.3
20260504030032 6 83 0.0 0.0 0.00 0.00 0.00 69 1013.2
20260504024532 6 84 0.0 0.0 0.00 0.00 0.00 69 1013.2
20260504023031 6 82 0.0 0.0 0.00 0.00 0.00 68 1013.3
20260504021530 7 84 0.0 0.0 0.00 0.00 0.00 67 1013.2
20260504020030 7 84 0.0 0.0 0.00 0.00 0.00 63 1013.2
20260504014530 8 84 0.0 0.0 0.00 0.00 0.00 63 1013.0
20260504013036 8 84 0.0 0.0 0.00 0.00 0.00 61 1013.0
20260504011528 8 83 0.0 0.0 0.00 0.00 0.00 59 1012.8
20260504010027 10 84 0.0 0.0 0.00 0.00 0.00 56 1012.7
20260504004527 10 84 0.0 0.0 0.00 0.00 0.00 53 1012.5
20260504003027 11 84 0.0 0.0 0.00 0.00 0.00 50 1012.3
20260504001526 12 84 0.0 0.0 0.00 0.00 0.00 44 1012.1
20260504000026 13 91 0.0 1.6 0.00 0.00 0.00 41 1012.0
20260503234527 13 263 0.0 4.8 0.00 0.00 0.00 40 1011.8
20260503233024 14 106 0.0 1.6 0.00 0.00 0.00 39 1011.8
20260503231524 15 250 0.0 4.8 0.00 0.00 0.00 36 1011.7
20260503230024 15 293 1.6 8.0 0.00 0.00 0.00 34 1011.6
20260503224523 16 233 1.6 11.3 0.00 0.00 0.00 32 1011.5
20260503223022 17 285 0.0 8.0 0.00 0.00 0.00 33 1011.6
20260503221521 17 293 0.0 9.7 0.00 0.00 0.00 32 1011.6
20260503220019 17 270 0.0 6.4 0.00 0.00 0.00 35 1011.6
20260503214518 17 256 3.2 9.7 0.00 0.00 0.00 33 1011.6
20260503213018 17 276 3.2 8.0 0.00 0.00 0.00 32 1011.6
20260503211520 17 285 4.8 12.9 0.00 0.00 0.00 30 1011.5
20260503210016 17 291 3.2 8.0 0.00 0.00 0.00 35 1011.4
20260503204513 16 286 1.6 8.0 0.00 0.00 0.00 33 1011.5
20260503203012 16 264 3.2 11.3 0.00 0.00 0.00 32 1011.7
20260503201509 16 200 4.8 12.9 0.00 0.00 0.00 36 1011.8
20260503200009 16 278 3.2 8.0 0.00 0.00 0.00 36 1011.9
20260503194507 15 290 3.2 14.5 0.00 0.00 0.00 35 1012.1
20260503193007 16 337 4.8 11.3 0.00 0.00 0.00 35 1012.4
20260503191503 15 315 1.6 14.5 0.00 0.00 0.00 35 1012.3
20260503190004 15 276 3.2 8.0 0.00 0.00 0.00 35 1012.4
20260503184502 15 268 3.2 12.9 0.00 0.00 0.00 34 1012.7
20260503183000 14 6 3.2 12.9 0.00 0.00 0.00 34 1012.9
20260503181600 15 318 1.6 11.3 0.00 0.00 0.00 38 1012.8
20260503174558 14 288 1.6 11.3 0.00 0.00 0.00 38 1012.8
20260503173113 14 285 3.2 14.5 0.00 0.00 0.00 37 1012.9
20260503171555 14 295 1.6 11.3 0.00 0.00 0.00 38 1013.1